WZZ874 EBCI-EPKK

Flight info

Callsign WZZ874
Flight time 1h 35m
Altitude 39000
Route SOPOK Y863 OGLOR DCT EMGOD DCT BOMBI DCT LOHRE L984 LONLI DCT ABERU L984 OKG DCT SOPAV DCT PADKA
Aircraft A20N/M-SDE2E3FGHIRWXY/LB1

Departure

Time 2026-05-08 16:48
Airport Brussels South Charleroi Airport (EBCI)

Arrival

Time 2026-05-08 18:23
Airport Kraków John Paul II International Airport (EPKK)
Time Latitude Longitude Altitude Speed Heading
2026-05-08 16:07 50.46927 4.47287 581 ft 0 kts 335°
2026-05-08 16:33 50.46925 4.47288 581 ft 1 kts 335°
2026-05-08 16:33 50.46912 4.47298 581 ft 2 kts 335°
2026-05-08 16:33 50.46898 4.47308 581 ft 2 kts 335°
2026-05-08 16:34 50.46889 4.47314 581 ft 1 kts 335°
2026-05-08 16:34 50.46879 4.47328 581 ft 2 kts 283°
2026-05-08 16:34 50.46879 4.47343 581 ft 0 kts 249°
2026-05-08 16:34 50.46883 4.47353 581 ft 1 kts 244°
2026-05-08 16:35 50.46883 4.47354 581 ft 0 kts 244°
2026-05-08 16:40 50.46882 4.47352 581 ft 0 kts 245°
2026-05-08 16:41 50.46879 4.47342 581 ft 1 kts 246°
2026-05-08 16:41 50.46874 4.47329 581 ft 1 kts 223°
2026-05-08 16:41 50.46864 4.47321 581 ft 1 kts 186°
2026-05-08 16:42 50.46811 4.47344 581 ft 6 kts 159°
2026-05-08 16:42 50.46760 4.47325 582 ft 10 kts 230°
2026-05-08 16:42 50.46725 4.47207 583 ft 12 kts 245°
2026-05-08 16:42 50.46690 4.47089 584 ft 11 kts 244°
2026-05-08 16:43 50.46657 4.46975 586 ft 11 kts 246°
2026-05-08 16:43 50.46627 4.46867 588 ft 10 kts 246°
2026-05-08 16:43 50.46595 4.46762 588 ft 11 kts 245°
2026-05-08 16:43 50.46561 4.46643 591 ft 13 kts 245°
2026-05-08 16:44 50.46516 4.46489 593 ft 17 kts 245°
2026-05-08 16:44 50.46461 4.46299 598 ft 18 kts 245°
2026-05-08 16:44 50.46412 4.46130 602 ft 16 kts 245°
2026-05-08 16:44 50.46368 4.45975 604 ft 14 kts 245°
2026-05-08 16:45 50.46327 4.45838 607 ft 12 kts 244°
2026-05-08 16:45 50.46291 4.45717 610 ft 12 kts 246°
2026-05-08 16:45 50.46252 4.45580 612 ft 15 kts 245°
2026-05-08 16:45 50.46199 4.45399 614 ft 20 kts 246°
2026-05-08 16:46 50.46137 4.45177 615 ft 22 kts 246°
2026-05-08 16:46 50.46074 4.44965 616 ft 19 kts 245°
2026-05-08 16:46 50.46025 4.44804 615 ft 12 kts 233°
2026-05-08 16:46 50.45944 4.44779 615 ft 13 kts 160°
2026-05-08 16:47 50.45882 4.44821 615 ft 5 kts 155°
2026-05-08 16:47 50.45862 4.44857 615 ft 5 kts 81°
2026-05-08 16:47 50.45888 4.44948 616 ft 26 kts 65°
2026-05-08 16:47 50.46069 4.45570 613 ft 97 kts 65°
2026-05-08 16:48 50.46434 4.46826 590 ft 155 kts 66°
2026-05-08 16:48 50.46898 4.48454 1025 ft 165 kts 64°
2026-05-08 16:48 50.47387 4.50092 1635 ft 170 kts 56°
2026-05-08 16:48 50.48184 4.51411 2315 ft 172 kts 41°
2026-05-08 16:49 50.49112 4.52693 2808 ft 186 kts 44°
2026-05-08 16:49 50.50057 4.54150 3334 ft 199 kts 47°
2026-05-08 16:49 50.51056 4.55816 3700 ft 223 kts 49°
2026-05-08 16:49 50.52121 4.57709 4283 ft 239 kts 49°
2026-05-08 16:50 50.53223 4.59762 4820 ft 256 kts 52°
2026-05-08 16:50 50.54332 4.62030 5508 ft 267 kts 53°
2026-05-08 16:50 50.55453 4.64351 6347 ft 272 kts 53°
2026-05-08 16:50 50.56601 4.66717 7193 ft 276 kts 53°
2026-05-08 16:51 50.57771 4.69113 8022 ft 281 kts 53°
2026-05-08 16:51 50.58983 4.71586 8832 ft 286 kts 52°
2026-05-08 16:51 50.60188 4.74042 9596 ft 291 kts 52°
2026-05-08 16:51 50.61441 4.76592 10371 ft 296 kts 52°
2026-05-08 16:52 50.62698 4.79149 11047 ft 303 kts 52°
2026-05-08 16:52 50.63984 4.81768 11778 ft 308 kts 52°
2026-05-08 16:52 50.65297 4.84467 12550 ft 311 kts 55°
2026-05-08 16:52 50.66180 4.87510 13260 ft 314 kts 81°
2026-05-08 16:53 50.65459 4.94185 14745 ft 317 kts 109°
2026-05-08 16:53 50.64776 4.97465 15426 ft 321 kts 109°
2026-05-08 16:53 50.64093 5.00811 16099 ft 324 kts 108°
2026-05-08 16:54 50.63413 5.04195 16773 ft 328 kts 108°
2026-05-08 16:54 50.62730 5.07634 17455 ft 331 kts 108°
2026-05-08 16:54 50.62042 5.11109 18104 ft 335 kts 108°
2026-05-08 16:54 50.61353 5.14592 18725 ft 338 kts 108°
2026-05-08 16:55 50.60638 5.18196 19374 ft 341 kts 108°
2026-05-08 16:55 50.59918 5.21766 20003 ft 344 kts 110°
2026-05-08 16:55 50.58868 5.25169 20604 ft 347 kts 123°
2026-05-08 16:55 50.57386 5.28108 21213 ft 349 kts 134°
2026-05-08 16:56 50.55657 5.30828 21798 ft 352 kts 136°
2026-05-08 16:56 50.53896 5.33510 22368 ft 355 kts 136°
2026-05-08 16:56 50.52125 5.36206 22941 ft 359 kts 136°
2026-05-08 16:56 50.50334 5.38946 23505 ft 362 kts 136°
2026-05-08 16:57 50.48552 5.41682 24042 ft 365 kts 136°
2026-05-08 16:57 50.46732 5.44480 24558 ft 368 kts 136°
2026-05-08 16:57 50.44894 5.47308 25062 ft 371 kts 136°
2026-05-08 16:57 50.43039 5.50161 25549 ft 375 kts 136°
2026-05-08 16:58 50.41185 5.53010 26020 ft 377 kts 136°
2026-05-08 16:58 50.39308 5.55892 26479 ft 380 kts 136°
2026-05-08 16:58 50.37428 5.58779 26925 ft 383 kts 136°
2026-05-08 16:58 50.35528 5.61690 27357 ft 385 kts 136°
2026-05-08 16:59 50.33622 5.64608 27779 ft 388 kts 136°
2026-05-08 16:59 50.31686 5.67567 28193 ft 391 kts 136°
2026-05-08 16:59 50.29748 5.70525 28605 ft 393 kts 136°
2026-05-08 16:59 50.27805 5.73545 28988 ft 396 kts 133°
2026-05-08 17:00 50.26114 5.76970 29376 ft 399 kts 123°
2026-05-08 17:00 50.24818 5.80777 29744 ft 402 kts 113°
2026-05-08 17:00 50.23918 5.84944 30123 ft 405 kts 106°
2026-05-08 17:00 50.23208 5.89188 30501 ft 407 kts 104°
2026-05-08 17:01 50.22525 5.93429 30852 ft 409 kts 104°
2026-05-08 17:01 50.21813 5.97776 31157 ft 411 kts 105°
2026-05-08 17:01 50.21094 6.02075 31440 ft 413 kts 105°
2026-05-08 17:01 50.20359 6.06414 31710 ft 416 kts 105°
2026-05-08 17:02 50.19691 6.10811 31976 ft 418 kts 102°
2026-05-08 17:02 50.19195 6.15222 32223 ft 421 kts 98°
2026-05-08 17:02 50.18872 6.19773 32467 ft 423 kts 94°
2026-05-08 17:02 50.18739 6.24349 32696 ft 425 kts 90°
2026-05-08 17:03 50.18795 6.28920 32916 ft 427 kts 86°
2026-05-08 17:03 50.19032 6.33574 33137 ft 430 kts 84°
2026-05-08 17:03 50.19331 6.38206 33367 ft 432 kts 84°
2026-05-08 17:03 50.19638 6.42866 33572 ft 434 kts 84°
2026-05-08 17:04 50.19939 6.47543 33740 ft 437 kts 84°
2026-05-08 17:04 50.20232 6.52220 33902 ft 439 kts 84°
2026-05-08 17:04 50.20522 6.56934 34069 ft 441 kts 84°
2026-05-08 17:04 50.20793 6.61691 34233 ft 442 kts 85°
2026-05-08 17:05 50.20908 6.66505 34395 ft 444 kts 90°
2026-05-08 17:05 50.20861 6.71336 34570 ft 446 kts 92°
2026-05-08 17:05 50.20775 6.76181 34751 ft 447 kts 92°
2026-05-08 17:05 50.20682 6.81018 34902 ft 448 kts 92°
2026-05-08 17:06 50.20589 6.85851 35063 ft 450 kts 92°
2026-05-08 17:06 50.20496 6.90715 35224 ft 451 kts 92°
2026-05-08 17:06 50.20402 6.95585 35388 ft 452 kts 92°
2026-05-08 17:06 50.20306 7.00517 35533 ft 453 kts 92°
2026-05-08 17:07 50.20209 7.05400 35655 ft 454 kts 92°
2026-05-08 17:07 50.20110 7.10297 35764 ft 456 kts 92°
2026-05-08 17:07 50.20010 7.15197 35915 ft 456 kts 92°
2026-05-08 17:07 50.19906 7.20179 36089 ft 456 kts 92°
2026-05-08 17:08 50.19801 7.25066 36257 ft 456 kts 92°
2026-05-08 17:08 50.19685 7.29987 36394 ft 456 kts 93°
2026-05-08 17:08 50.19435 7.34869 36540 ft 456 kts 97°
2026-05-08 17:08 50.19029 7.39769 36670 ft 456 kts 98°
2026-05-08 17:09 50.18589 7.44670 36797 ft 457 kts 98°
2026-05-08 17:09 50.18142 7.49578 36942 ft 457 kts 98°
2026-05-08 17:09 50.17701 7.54421 37064 ft 457 kts 98°
2026-05-08 17:09 50.17255 7.59312 37188 ft 457 kts 98°
2026-05-08 17:10 50.16805 7.64241 37315 ft 458 kts 98°
2026-05-08 17:10 50.16355 7.69158 37440 ft 458 kts 99°
2026-05-08 17:10 50.15909 7.74010 37545 ft 458 kts 99°
2026-05-08 17:10 50.15457 7.78915 37653 ft 458 kts 99°
2026-05-08 17:11 50.15005 7.83793 37757 ft 459 kts 99°
2026-05-08 17:11 50.14543 7.88758 37861 ft 459 kts 99°
2026-05-08 17:11 50.14085 7.93648 37964 ft 459 kts 99°
2026-05-08 17:11 50.13626 7.98532 38065 ft 459 kts 99°
2026-05-08 17:12 50.12699 8.08319 38260 ft 459 kts 99°
2026-05-08 17:12 50.11758 8.18174 38439 ft 460 kts 99°
2026-05-08 17:13 50.10814 8.27956 38600 ft 460 kts 99°
2026-05-08 17:13 50.09858 8.37796 38781 ft 461 kts 99°
2026-05-08 17:14 50.08896 8.47619 38981 ft 461 kts 99°
2026-05-08 17:14 50.08411 8.52529 39082 ft 460 kts 99°
2026-05-08 17:14 50.07921 8.57480 39093 ft 461 kts 99°
2026-05-08 17:15 50.06944 8.67246 39094 ft 461 kts 100°
2026-05-08 17:15 50.06031 8.77139 39095 ft 461 kts 96°
2026-05-08 17:16 50.05748 8.87035 39090 ft 462 kts 89°
2026-05-08 17:16 50.05915 8.96970 39088 ft 462 kts 89°
2026-05-08 17:17 50.06094 9.06918 39088 ft 463 kts 89°
2026-05-08 17:17 50.06253 9.16900 39087 ft 463 kts 89°
2026-05-08 17:18 50.06399 9.26896 39095 ft 463 kts 89°
2026-05-08 17:18 50.06537 9.36873 39097 ft 463 kts 89°
2026-05-08 17:19 50.06663 9.46808 39097 ft 463 kts 89°
2026-05-08 17:19 50.06778 9.56767 39095 ft 462 kts 89°
2026-05-08 17:20 50.06883 9.66774 39102 ft 462 kts 90°
2026-05-08 17:20 50.06977 9.76722 39101 ft 462 kts 90°
2026-05-08 17:21 50.07071 9.86703 39101 ft 463 kts 90°
2026-05-08 17:21 50.07163 9.96674 39104 ft 464 kts 89°
2026-05-08 17:22 50.07245 10.06676 39109 ft 464 kts 90°
2026-05-08 17:22 50.07304 10.16674 39109 ft 464 kts 90°
2026-05-08 17:23 50.07338 10.26695 39112 ft 464 kts 90°
2026-05-08 17:23 50.07390 10.36679 39112 ft 464 kts 90°
2026-05-08 17:24 50.07436 10.46675 39113 ft 463 kts 90°
2026-05-08 17:24 50.07473 10.56713 39113 ft 464 kts 90°
2026-05-08 17:25 50.07499 10.66722 39113 ft 465 kts 91°
2026-05-08 17:25 50.07515 10.76765 39112 ft 466 kts 91°
2026-05-08 17:26 50.07518 10.86826 39116 ft 465 kts 91°
2026-05-08 17:26 50.07513 10.96853 39116 ft 465 kts 91°
2026-05-08 17:27 50.07503 11.06857 39113 ft 466 kts 91°
2026-05-08 17:27 50.07481 11.16937 39112 ft 466 kts 91°
2026-05-08 17:28 50.07451 11.26928 39112 ft 465 kts 91°
2026-05-08 17:28 50.07415 11.37003 39108 ft 466 kts 91°
2026-05-08 17:29 50.07370 11.46987 39108 ft 466 kts 91°
2026-05-08 17:29 50.07318 11.57037 39107 ft 466 kts 91°
2026-05-08 17:30 50.07258 11.67100 39103 ft 465 kts 91°
2026-05-08 17:30 50.07190 11.77154 39101 ft 465 kts 91°
2026-05-08 17:31 50.07113 11.87207 39102 ft 465 kts 91°
2026-05-08 17:31 50.07028 11.97179 39100 ft 465 kts 91°
2026-05-08 17:32 50.06932 12.07234 39099 ft 465 kts 91°
2026-05-08 17:32 50.06818 12.17242 39100 ft 465 kts 92°
2026-05-08 17:33 50.06688 12.27315 39103 ft 466 kts 92°
2026-05-08 17:33 50.06551 12.37280 39105 ft 466 kts 92°
2026-05-08 17:34 50.06471 12.47391 39106 ft 466 kts 90°
2026-05-08 17:34 50.06480 12.57373 39110 ft 466 kts 90°
2026-05-08 17:35 50.06479 12.67446 39113 ft 465 kts 91°
2026-05-08 17:35 50.06460 12.77496 39104 ft 466 kts 91°
2026-05-08 17:36 50.06428 12.87553 39101 ft 466 kts 91°
2026-05-08 17:36 50.06389 12.97605 39116 ft 466 kts 91°
2026-05-08 17:37 50.06341 13.07651 39126 ft 466 kts 91°
2026-05-08 17:37 50.06284 13.17755 39128 ft 466 kts 91°
2026-05-08 17:38 50.06219 13.27756 39127 ft 466 kts 91°
2026-05-08 17:38 50.06145 13.37804 39129 ft 466 kts 91°
2026-05-08 17:39 50.06062 13.47813 39125 ft 466 kts 91°
2026-05-08 17:39 50.05971 13.57864 39125 ft 465 kts 91°
2026-05-08 17:40 50.05871 13.67878 39125 ft 465 kts 92°
2026-05-08 17:40 50.05762 13.77887 39123 ft 465 kts 92°
2026-05-08 17:41 50.05645 13.87885 39130 ft 464 kts 92°
2026-05-08 17:41 50.05519 13.97897 39129 ft 465 kts 92°
2026-05-08 17:42 50.05386 14.07879 39129 ft 465 kts 92°
2026-05-08 17:42 50.05242 14.17941 39132 ft 465 kts 92°
2026-05-08 17:43 50.05090 14.27922 39136 ft 465 kts 92°
2026-05-08 17:43 50.04930 14.37966 39135 ft 464 kts 92°
2026-05-08 17:44 50.04760 14.47947 39138 ft 464 kts 92°
2026-05-08 17:44 50.04582 14.57996 39136 ft 465 kts 91°
2026-05-08 17:45 50.04397 14.67987 39139 ft 465 kts 92°
2026-05-08 17:45 50.04203 14.77980 39132 ft 465 kts 92°
2026-05-08 17:46 50.04000 14.88028 39126 ft 465 kts 92°
2026-05-08 17:46 50.03788 14.98014 39127 ft 465 kts 92°
2026-05-08 17:47 50.03566 15.08030 39119 ft 465 kts 92°
2026-05-08 17:47 50.03376 15.16347 39123 ft 465 kts 92°
2026-05-08 17:48 50.03098 15.28088 39120 ft 465 kts 92°
2026-05-08 17:48 50.02852 15.38096 39117 ft 466 kts 92°
2026-05-08 17:49 50.02596 15.48146 39114 ft 465 kts 92°
2026-05-08 17:49 50.02334 15.58111 39118 ft 465 kts 92°
2026-05-08 17:50 50.02061 15.68151 39117 ft 464 kts 93°
2026-05-08 17:50 50.01783 15.78064 39119 ft 463 kts 93°
2026-05-08 17:51 50.01492 15.88063 39119 ft 464 kts 93°
2026-05-08 17:51 50.01194 15.98060 39112 ft 465 kts 93°
2026-05-08 17:52 50.00888 16.08053 39110 ft 465 kts 93°
2026-05-08 17:53 50.00414 16.23024 39110 ft 465 kts 93°
2026-05-08 17:53 50.00084 16.33068 39110 ft 465 kts 93°
2026-05-08 17:54 49.99748 16.43029 39104 ft 465 kts 93°
2026-05-08 17:54 49.99402 16.53025 39107 ft 465 kts 93°
2026-05-08 17:55 49.99047 16.63069 39103 ft 465 kts 93°
2026-05-08 17:55 49.98687 16.73018 39110 ft 465 kts 94°
2026-05-08 17:56 49.98314 16.83022 38927 ft 466 kts 94°
2026-05-08 17:56 49.98127 16.87978 38696 ft 463 kts 94°
2026-05-08 17:56 49.97937 16.92932 38476 ft 461 kts 94°
2026-05-08 17:56 49.97748 16.97863 38280 ft 459 kts 94°
2026-05-08 17:57 49.97558 17.02768 38052 ft 457 kts 94°
2026-05-08 17:57 49.97364 17.07724 37777 ft 455 kts 94°
2026-05-08 17:57 49.97169 17.12603 37340 ft 456 kts 94°
2026-05-08 17:57 49.96972 17.17498 36811 ft 459 kts 95°
2026-05-08 17:58 49.96773 17.22390 36197 ft 465 kts 95°
2026-05-08 17:58 49.96565 17.27417 35570 ft 470 kts 95°
2026-05-08 17:58 49.96355 17.32472 34921 ft 475 kts 95°
2026-05-08 17:58 49.96139 17.37586 34214 ft 480 kts 95°
2026-05-08 17:59 49.95918 17.42753 33550 ft 480 kts 95°
2026-05-08 17:59 49.95699 17.47897 33091 ft 476 kts 95°
2026-05-08 17:59 49.95477 17.52982 32640 ft 472 kts 95°
2026-05-08 17:59 49.95257 17.58028 32183 ft 469 kts 95°
2026-05-08 18:00 49.95033 17.63043 31725 ft 466 kts 95°
2026-05-08 18:00 49.94588 17.72975 30813 ft 461 kts 96°
2026-05-08 18:00 49.94362 17.77967 30347 ft 458 kts 96°
2026-05-08 18:01 49.94139 17.82813 29909 ft 455 kts 96°
2026-05-08 18:01 49.93915 17.87657 29468 ft 451 kts 96°
2026-05-08 18:01 49.93689 17.92481 29037 ft 448 kts 96°
2026-05-08 18:01 49.93460 17.97299 28587 ft 444 kts 96°
2026-05-08 18:02 49.93235 18.02027 28152 ft 441 kts 95°
2026-05-08 18:02 49.93126 18.05134 27870 ft 439 kts 92°
2026-05-08 18:02 49.93135 18.11410 27321 ft 434 kts 89°
2026-05-08 18:02 49.93205 18.16079 26916 ft 431 kts 89°
2026-05-08 18:03 49.93276 18.20686 26487 ft 427 kts 89°
2026-05-08 18:03 49.93341 18.25265 26074 ft 424 kts 89°
2026-05-08 18:03 49.93341 18.29780 25658 ft 420 kts 92°
2026-05-08 18:03 49.93225 18.34245 25236 ft 417 kts 93°
2026-05-08 18:04 49.93086 18.38728 24809 ft 414 kts 93°
2026-05-08 18:04 49.92944 18.43155 24399 ft 411 kts 93°
2026-05-08 18:04 49.92804 18.47570 23964 ft 408 kts 93°
2026-05-08 18:04 49.92668 18.51926 23558 ft 405 kts 93°
2026-05-08 18:05 49.92533 18.56206 23160 ft 401 kts 93°
2026-05-08 18:05 49.92397 18.60507 22722 ft 392 kts 93°
2026-05-08 18:05 49.92265 18.64638 22189 ft 381 kts 93°
2026-05-08 18:05 49.92134 18.68708 21801 ft 369 kts 94°
2026-05-08 18:06 49.92004 18.72625 21496 ft 368 kts 94°
2026-05-08 18:06 49.91872 18.76584 21135 ft 366 kts 94°
2026-05-08 18:06 49.91733 18.80488 20739 ft 365 kts 95°
2026-05-08 18:06 49.91526 18.84456 20349 ft 381 kts 96°
2026-05-08 18:07 49.91287 18.88550 19942 ft 382 kts 96°
2026-05-08 18:07 49.91049 18.92613 19530 ft 380 kts 96°
2026-05-08 18:07 49.90813 18.96693 19122 ft 378 kts 95°
2026-05-08 18:07 49.90583 19.00736 18719 ft 375 kts 95°
2026-05-08 18:08 49.90358 19.04695 18473 ft 373 kts 95°
2026-05-08 18:08 49.90131 19.08671 18077 ft 372 kts 95°
2026-05-08 18:08 49.89902 19.12676 17682 ft 369 kts 95°
2026-05-08 18:08 49.89673 19.16629 17290 ft 366 kts 95°
2026-05-08 18:09 49.89447 19.20517 16906 ft 363 kts 95°
2026-05-08 18:09 49.89221 19.24382 16507 ft 361 kts 95°
2026-05-08 18:09 49.89275 19.28217 16105 ft 358 kts 79°
2026-05-08 18:09 49.89999 19.31913 15714 ft 355 kts 66°
2026-05-08 18:10 49.90975 19.35356 15328 ft 353 kts 64°
2026-05-08 18:10 49.91994 19.38826 14941 ft 351 kts 64°
2026-05-08 18:10 49.92983 19.42249 14542 ft 349 kts 65°
2026-05-08 18:10 49.93955 19.45681 14165 ft 347 kts 65°
2026-05-08 18:11 49.94794 19.49162 13782 ft 345 kts 72°
2026-05-08 18:11 49.95384 19.52719 13401 ft 344 kts 77°
2026-05-08 18:11 49.95877 19.56350 13017 ft 342 kts 78°
2026-05-08 18:11 49.96349 19.59948 12628 ft 340 kts 78°
2026-05-08 18:12 49.96819 19.63504 12244 ft 338 kts 77°
2026-05-08 18:12 49.97298 19.67082 11857 ft 336 kts 78°
2026-05-08 18:12 49.97773 19.70604 11468 ft 335 kts 78°
2026-05-08 18:12 49.98249 19.74130 11083 ft 333 kts 78°
2026-05-08 18:13 49.98724 19.77627 10698 ft 332 kts 79°
2026-05-08 18:13 49.99193 19.81085 10314 ft 330 kts 79°
2026-05-08 18:13 49.99662 19.84549 9938 ft 328 kts 79°
2026-05-08 18:13 50.00130 19.88021 9538 ft 326 kts 79°
2026-05-08 18:14 50.00597 19.91477 9034 ft 327 kts 79°
2026-05-08 18:14 50.01062 19.94923 8539 ft 328 kts 79°
2026-05-08 18:14 50.01522 19.98343 8049 ft 328 kts 78°
2026-05-08 18:14 50.01988 20.01798 7551 ft 322 kts 78°
2026-05-08 18:15 50.02440 20.05132 7051 ft 313 kts 78°
2026-05-08 18:15 50.02880 20.08388 6550 ft 302 kts 78°
2026-05-08 18:15 50.03301 20.11506 6044 ft 290 kts 78°
2026-05-08 18:15 50.03706 20.14500 5542 ft 279 kts 78°
2026-05-08 18:16 50.04096 20.17352 5050 ft 269 kts 75°
2026-05-08 18:16 50.04879 20.19920 4522 ft 258 kts 44°
2026-05-08 18:16 50.06341 20.21226 4264 ft 239 kts 12°
2026-05-08 18:16 50.07925 20.21376 4122 ft 218 kts 350°
2026-05-08 18:17 50.09269 20.20705 4067 ft 193 kts 332°
2026-05-08 18:17 50.10319 20.19477 3970 ft 186 kts 314°
2026-05-08 18:17 50.11052 20.17802 3969 ft 187 kts 295°
2026-05-08 18:17 50.11406 20.15876 3970 ft 187 kts 281°
2026-05-08 18:18 50.11597 20.13864 3969 ft 187 kts 279°
2026-05-08 18:18 50.11768 20.11849 3956 ft 187 kts 279°
2026-05-08 18:18 50.11916 20.09853 3961 ft 188 kts 274°
2026-05-08 18:18 50.11841 20.07825 3892 ft 189 kts 263°
2026-05-08 18:19 50.11588 20.05813 3715 ft 188 kts 259°
2026-05-08 18:19 50.11307 20.03833 3560 ft 189 kts 259°
2026-05-08 18:19 50.11024 20.01849 3415 ft 189 kts 259°
2026-05-08 18:19 50.10741 19.99841 3271 ft 189 kts 259°
2026-05-08 18:20 50.10468 19.97886 3106 ft 180 kts 259°
2026-05-08 18:20 50.10214 19.96065 2966 ft 160 kts 260°
2026-05-08 18:20 50.09992 19.94477 2937 ft 147 kts 260°
2026-05-08 18:20 50.09776 19.92907 2857 ft 147 kts 261°
2026-05-08 18:21 50.09563 19.91368 2637 ft 146 kts 261°
2026-05-08 18:21 50.09351 19.89832 2376 ft 145 kts 261°
2026-05-08 18:21 50.09141 19.88307 2135 ft 144 kts 261°
2026-05-08 18:21 50.08930 19.86782 1878 ft 143 kts 261°
2026-05-08 18:22 50.08722 19.85278 1629 ft 143 kts 261°
2026-05-08 18:22 50.08506 19.83772 1413 ft 142 kts 259°
2026-05-08 18:22 50.08291 19.82288 1157 ft 141 kts 260°
2026-05-08 18:22 50.08090 19.80807 955 ft 140 kts 259°
2026-05-08 18:23 50.07890 19.79338 808 ft 134 kts 258°
2026-05-08 18:23 50.07719 19.78087 800 ft 96 kts 258°
2026-05-08 18:23 50.07614 19.77334 800 ft 46 kts 258°
2026-05-08 18:23 50.07570 19.77025 800 ft 22 kts 258°
2026-05-08 18:24 50.07528 19.76857 800 ft 16 kts 214°
2026-05-08 18:24 50.07464 19.76858 800 ft 9 kts 168°
2026-05-08 18:24 50.07412 19.76874 800 ft 7 kts 168°
2026-05-08 18:24 50.07377 19.76886 800 ft 4 kts 168°
2026-05-08 18:25 50.07347 19.76897 800 ft 4 kts 166°
2026-05-08 18:25 50.07314 19.76918 800 ft 5 kts 128°
2026-05-08 18:25 50.07312 19.76985 800 ft 7 kts 80°
2026-05-08 18:25 50.07324 19.77066 800 ft 8 kts 78°
2026-05-08 18:26 50.07336 19.77162 800 ft 9 kts 79°
2026-05-08 18:26 50.07351 19.77273 800 ft 11 kts 77°
2026-05-08 18:26 50.07370 19.77395 800 ft 12 kts 78°
2026-05-08 18:26 50.07389 19.77542 800 ft 16 kts 78°
2026-05-08 18:27 50.07417 19.77736 800 ft 19 kts 77°
2026-05-08 18:27 50.07436 19.77879 800 ft 20 kts 77°
2026-05-08 18:27 50.07478 19.78177 800 ft 22 kts 76°
2026-05-08 18:27 50.07514 19.78410 800 ft 21 kts 76°
2026-05-08 18:28 50.07542 19.78634 800 ft 21 kts 77°
2026-05-08 18:28 50.07572 19.78851 800 ft 19 kts 78°
2026-05-08 18:28 50.07597 19.79040 800 ft 17 kts 78°
2026-05-08 18:28 50.07625 19.79229 800 ft 17 kts 79°
2026-05-08 18:29 50.07650 19.79421 800 ft 18 kts 77°
2026-05-08 18:29 50.07676 19.79604 800 ft 16 kts 78°
2026-05-08 18:29 50.07700 19.79772 800 ft 13 kts 78°
2026-05-08 18:29 50.07682 19.79856 800 ft 9 kts 174°
2026-05-08 18:30 50.07618 19.79895 800 ft 9 kts 167°
2026-05-08 18:30 50.07556 19.79917 800 ft 8 kts 168°
2026-05-08 18:30 50.07511 19.79940 800 ft 6 kts 133°
2026-05-08 18:30 50.07515 19.80018 800 ft 8 kts 76°
2026-05-08 18:31 50.07528 19.80113 800 ft 8 kts 77°
2026-05-08 18:31 50.07537 19.80171 800 ft 4 kts 79°
2026-05-08 18:31 50.07541 19.80206 800 ft 3 kts 78°
2026-05-08 18:31 50.07547 19.80250 800 ft 3 kts 89°
2026-05-08 18:32 50.07523 19.80265 800 ft 4 kts 167°
2026-05-08 18:32 50.07497 19.80274 800 ft 3 kts 167°
2026-05-08 18:32 50.07496 19.80274 800 ft 0 kts 167°